Regional Weather Roundup
Issued by NWS Huntsville, AL

Home | Current Version | Previous Version | Text Only | Print | Product List | Glossary On
Versions: 1 2 3 4 5 6 7 8 9 10 11 12 13 14 15 16 17 18 19 20 21 22 23 24 25 26 27 28 29 30 31 32 33 34 35 36 37 38 39 40 41 42 43 44 45 46 47 48 49 50
973
ASUS44 KHUN 061810
RWRHUN

WEATHER ROUNDUP FOR THE TENNESSEE VALLEY
NATIONAL WEATHER SERVICE HUNTSVILLE AL
1200 PM CST SAT FEB 06 2016

ALZ001>004-061900-
NORTHWEST ALABAMA

CITY           SKY/WX    TMP DP  RH WIND       PRES   REMARKS
COURTLAND HCN    N/A     45 N/A N/A CALM        N/A
RUSSELLVILLE     N/A     45 N/A N/A MISG        N/A
SHOALS AIRPORT CLOUDY    47  23  38 CALM      30.38F
6HR MIN TEMP:  31; 6HR MAX TEMP:  47;

SHOALS TVA RES   N/A     46 N/A N/A MISG        N/A
$$

ALZ005>007-016-061900-
NORTH CENTRAL ALABAMA

CITY           SKY/WX    TMP DP  RH WIND       PRES   REMARKS
CULLMAN AG STN   N/A     46 N/A N/A NE7         N/A
DECATUR AP     PTSUNNY   44  23  43 CALM      30.38F
6HR MIN TEMP:  29; 6HR MAX TEMP:  44;

HUNTSVILLE AP  CLOUDY    48  20  32 VRB3      30.36F
6HR MIN TEMP:  31; 6HR MAX TEMP:  48;

HUN NWS/UAH      N/A     48  12  23 NW1         N/A
MERIDIANVILLE  PTSUNNY   43  10  26 CALM      30.37F
REDSTONE ARSN  CLOUDY    47  18  32 VRB1      30.35F
VINEMONT AP    FAIR      47  15  27 N9G21     30.36F
$$

ALZ008>010-061900-
NORTHEAST ALABAMA

CITY           SKY/WX    TMP DP  RH WIND       PRES   REMARKS
ALBERTVILLE    MOSUNNY   45  28  53 E3        30.34F
FORT PAYNE     CLOUDY    45  14  29 SW3       30.34F
SCOTTSBORO AP  CLOUDY    45  23  42 CALM      30.37F
SCOTTSBORO HCN   N/A     45 N/A N/A MISG        N/A
VALLEY HEAD      N/A     45 N/A N/A MISG        N/A
$$

TNZ076-096-097-061900-
SOUTHEASTERN MIDDLE TENNESSEE

CITY           SKY/WX    TMP DP  RH WIND       PRES   REMARKS
TULLAHOMA      SUNNY     46  12  25 SE5       30.35F
WINCHESTER     SUNNY     46  19  34 S6        30.35F
$$

...SURROUNDING SITES...

CITY           SKY/WX    TMP DP  RH WIND       PRES   REMARKS
ATLANTA        PTSUNNY   48  18  30 N6        30.32F
ANNISTON       SUNNY     50  19  29 N8        30.33F
BIRMINGHAM     PTSUNNY   48  19  31 N5        30.36F
CHATTANOOGA    PTSUNNY   45  16  31 CALM      30.37F
DALTON         NOT AVBL
GADSDEN        MOSUNNY   44  23  43 N5        30.37F
GOLDEN TRNGL   PTSUNNY   52  21  30 NE9       30.35F
HALEYVILLE     CLOUDY    47  19  33 VRB3      30.37F
JACKSON TN     SUNNY     51  21  30 S3        30.36F
MEMPHIS        PTSUNNY   54  21  27 N6        30.36F
NASHVILLE      PTSUNNY   52  16  24 CALM      30.36F
OXFORD MS      FAIR      50  19  29 SE7       30.37F
ROME             N/A     47  21  35 MISG      30.34F
TUPELO         CLOUDY    48  17  29 E5        30.37F
TUSCALOOSA     SUNNY     52  17  25 VRB5      30.36F
$$

...GULF COAST WEATHER...

CITY           SKY/WX    TMP DP  RH WIND       PRES   REMARKS
GULFPORT       SUNNY     55  20  25 CALM      30.32F
PASCAGOULA     SUNNY     56  20  24 N9        30.31F
MOBILE         MOSUNNY   54  21  27 NE12      30.31F
GULF SHORES    CLEAR     54  19  25 NE6       30.28F
PENSACOLA      MOSUNNY   58  19  22 VRB5      30.28F
DESTIN         SUNNY     56  21  25 VRB3      30.28F
PANAMA CITY    MOSUNNY   54  29  39 NW7       30.29F
APPALACHICOLA  PTSUNNY   57  33  40 NW13      30.27F
$$





USA.gov is the U.S. government's official web portal to all federal, state and local government web resources and services.